This is the latest recevied weather packets stored in our database for station/object KF0EZB. If no packets are shown the sender has not sent any weather packets the latest 10 day(s).
| Time | Temp. | Humidity | Pressure | Rain* | Wind** | Luminosity | Snow |
|---|---|---|---|---|---|---|---|
| 1777944560 | 22.22° C | 45% | 1001.1 hPa | 0 mm | - | 1 W/m² | - |
| 1777944258 | 22.22° C | 44% | 1001.1 hPa | 0 mm | - | 1 W/m² | - |
| 1777943954 | 22.78° C | 44% | 1001 hPa | 0 mm | - | 5 W/m² | - |
| 1777943651 | 23.33° C | 43% | 1001.1 hPa | 0 mm | - | 9 W/m² | - |
| 1777943347 | 23.33° C | 41% | 1001 hPa | 0 mm | - | 13 W/m² | - |
| 1777943043 | 23.89° C | 41% | 1001.2 hPa | 0 mm | - | 19 W/m² | - |
| 1777942739 | 23.89° C | 41% | 1001.6 hPa | 0 mm | - | 21 W/m² | - |
| 1777942436 | 23.89° C | 40% | 1001.4 hPa | 0 mm | - | 28 W/m² | - |
| 1777942134 | 24.44° C | 39% | 1001.4 hPa | 0 mm | - | 32 W/m² | - |
| 1777941830 | 25° C | 38% | 1001.1 hPa | 0 mm | - | 33 W/m² | - |
| 1777941527 | 25.56° C | 36% | 1001.2 hPa | 0 mm | - | 28 W/m² | - |
| 1777941224 | 25.56° C | 34% | 1000.9 hPa | 0 mm | - | 35 W/m² | - |
| 1777940920 | 26.11° C | 35% | 1000.9 hPa | 0 mm | - | 38 W/m² | - |
| 1777940617 | 26.11° C | 34% | 1000.9 hPa | 0 mm | - | 32 W/m² | - |
| 1777940316 | 26.11° C | 32% | 1001.1 hPa | 0 mm | - | 27 W/m² | - |
| 1777940012 | 26.11° C | 31% | 1000.9 hPa | 0 mm | - | 19 W/m² | - |
| 1777939710 | 26.67° C | 30% | 1001.1 hPa | 0 mm | - | 17 W/m² | - |
| 1777939407 | 26.67° C | 30% | 1001 hPa | 0 mm | - | 18 W/m² | - |
| 1777939104 | 26.67° C | 31% | 1000.8 hPa | 0 mm | - | 24 W/m² | - |
| 1777938801 | 26.67° C | 31% | 1001 hPa | 0 mm | - | 32 W/m² | - |
| 1777938497 | 26.67° C | 32% | 1000.7 hPa | 0 mm | - | 38 W/m² | - |
| 1777938195 | 27.22° C | 31% | 1000.8 hPa | 0 mm | - | 48 W/m² | - |
| 1777937891 | 27.22° C | 31% | 1000.6 hPa | 0 mm | - | 49 W/m² | - |
| 1777937587 | 27.78° C | 30% | 1000.7 hPa | 0 mm | - | 62 W/m² | - |
| 1777937284 | 28.33° C | 28% | 1000.4 hPa | 0 mm | - | 70 W/m² | - |
* Rain latest hour (hover to see other rain measurements)
** Current wind speed in m/s (hover to see current wind gust speed)